Location: Unspecified
(46.0725°N, 13.7344°E)
Time: 09:50:26
(UTC+01:00)

Cosmos 2058 - Pass Details

Date: 29 October 2019
Orbit: 562 x 584 km, 82.5° (Epoch: 19 November)

Event Time Altitude Azimuth Distance (km) Brightness Sun altitude
Rises 05:40:30 0° 132° (SE) 2,788 7.4 -11.0°
Reaches altitude 10° 05:44:49 10° 89° (E) 1,902 7.1 -10.3°
Maximum altitude 05:45:20 10° 82° (E) 1,890 6.9 -10.2°
Drops below altitude 10° 05:45:52 10° 74° (ENE) 1,905 6.7 -10.1°
Sets 05:50:12 0° 32° (NNE) 2,817 6.8 -9.3°
